Voltar ao catálogo

STARLINK-30438

AtivoComunicaçõesVLEO
NORAD 58035·PAYLOAD·🇺🇸 United States

Lançado Oct 9, 2023 de Vandenberg Space Force Base

Loading…

Próximas Passagens (próximas 24 horas)

TLE

AtualizadoSource: CelesTrak SupGP

Época: Sep 14, 2026, 22:15 UTC

1 58035C 23156H   26257.92756944  .00045883  00000+0  14756-2 0  2575
2 58035  53.1580 278.8372 0001329  86.0005  27.9281 15.31675157    17

Acompanhe STARLINK-30438 em tempo real com AllMySat

Download on the App Store